Location: Dal�� Lhota
(48.7500°N, 14.0167°E)
Time: 02:50:04
(UTC+00:00)

Transit 2A - Pass Details

Date: 27 July 2021
Orbit: 594 x 964 km, 66.7° (Epoch: 27 September)

Event Time Altitude Azimuth Distance (km) Brightness Sun altitude
Rises 15:02:39 0° 323° (NW) 3,190 9.5 35.1°
Reaches altitude 10° 15:04:56 10° 322° (NW) 2,318 8.9 34.8°
Maximum altitude 15:10:17 75° 237° (WSW) 862 7.2 33.9°
Drops below altitude 10° 15:16:10 10° 154° (SSE) 2,549 8.6 32.9°
Sets 15:18:46 0° 153° (SSE) 3,531 9.3 32.5°
